Volver al catálogo

THOR ABLESTAR DEB

ActivoLEO
NORAD 261·DEBRIS·🇺🇸 United States

Lanzado Jun 29, 1961 desde Cape Canaveral Space Force Station

Loading…

Próximos Pases (próximas 24 horas)

TLE

ActualizadoSource: Space-Track

Época: Sep 14, 2026, 19:26 UTC

1 00261U 61015CH  26257.80974166  .00000060  00000-0  89471-4 0  9994
2 00261  66.6810 188.6722 0095146 272.5257  86.4937 14.01072139324641

Sigue THOR ABLESTAR DEB en tiempo real con AllMySat

Download on the App Store